Location: Gollag?dem
(16.8053°N, 80.8024°E)
Time: 13:44:48
(UTC+00:00)

Meteor 1-31 Rocket - Pass Details

Date: 13 August 2020
Orbit: 520 x 548 km, 97.6° (Epoch: 25 September)

Event Time Altitude Azimuth Distance (km) Brightness Sun altitude
Rises 22:38:59 0° 25° (NNE) 2,654 7.1 -23.7°
Reaches altitude 10° 22:41:16 10° 36° (NE) 1,760 6.2 -23.2°
Maximum altitude 22:44:39 31° 99° (E) 924 4.4 -22.4°
Enters shadow 22:47:55 11° 162° (SSE) 1,707 5.3 -21.7°
